Tracking 20093 objects as of 14-Dec-2019
HD Live streaming from Space Station
objects crossing your sky now

FENGYUN 1C DEB

Track FENGYUN 1C DEB now!
10-day predictions


NORAD ID: 31829
Int'l Code: 1999-025CHT
Perigee: 821.6 km
Apogee: 1,075.4 km
Inclination: 99.0 °
Period: 103.9 minutes
Semi major axis: 7319 km
RCS: 0.0129 m2 (small)
Launch date: May 10, 1999
Source: People's Republic of China (PRC)
Launch site: Taiyaun Space Center, China (TSC)

Note: This is SATELLITE DEBRIS
aabbcc
Your satellite tracking list
Your tracking list is empty




NASA's NSSDC Master Catalog

Two Line Element Set (TLE):
1 31829U 99025CHT 19347.94382212 +.00000133 +00000-0 +13534-3 0  9999
2 31829 099.0026 232.4439 0173397 352.5471 062.0020 13.86371265637755
Source of the keplerian elements: AFSPC